Location: ??
(35.5090°N, 139.6783°E)
Time: 19:54:41
(UTC+00:00)

YAOGAN 1 - Pass Details

Date: 08 November 2025
Orbit: 605 x 607 km, 97.8° (Epoch: 08 December)

Event Time Altitude Azimuth Distance (km) Brightness Sun altitude
Rises 09:34:26 0° 178° (S) 2,850 6.0 -23.5°
Reaches altitude 10° 09:36:38 10° 184° (S) 1,950 5.2 -24.0°
Maximum altitude 09:40:46 51° 260° (W) 767 3.3 -24.8°
Drops below altitude 10° 09:44:55 10° 337° (NNW) 1,963 5.3 -25.7°
Sets 09:47:10 0° 342° (NNW) 2,871 6.2 -26.1°
